Henderson, NV

8:53 AM PST on December 10, 2016 (GMT -0800)
Henderson

Weather History for KHND - October, 2013

Change the Weather History Date:

Sunday, October 6, 2013

  Actual Average (KLAS) Record (KLAS)
Temperature  
Mean Temperature 64 °F -  
Max Temperature 79 °F 87 °F 98 °F (1978)
Min Temperature 48 °F 60 °F 43 °F (1969)
Degree Days  
Heating Degree Days 2    
Growing Degree Days 14 (Base 50)    
Moisture  
Dew Point 18 °F    
Average Humidity 19    
Maximum Humidity 36    
Minimum Humidity 7    
Precipitation  
Precipitation 0.00 in - - ()
Sea Level Pressure  
Sea Level Pressure 30.19 in    
Wind  
Wind Speed 5 mph (SSE)    
Max Wind Speed 10 mph    
Max Gust Speed -    
Visibility 10 miles    
Events      
Averages and records for this station are not official NWS values.
T = Trace of Precipitation, MM = Missing Value Source: NWS Daily Summary

Daily Weather History Graph

Daily Weather History Graph

Search for Another Location

Airport or City:

Trip Planner

Search our weather history database for the weather conditions in past years. The results will help you decide how hot, cold, wet, or windy it might be!

Date:

Astronomy

Oct. 06, 2013 Rise Set
Actual Time 6:39 AM PDT 6:16 PM PDT
Civil Twilight 6:14 AM PDT 6:42 PM PDT
Nautical Twilight 5:44 AM PDT 7:11 PM PDT
Astronomical Twilight 5:14 AM PDT 7:41 PM PDT
Moon 8:24 AM PDT (10/6) 7:23 PM PDT (10/6)
Length of Visible Light 12h 27m
Length of Day
11h 36m
Waxing Crescent, 4% of the Moon is Illuminated
Oct 6
Waxing Crescent
Oct 11
First Quarter
Oct 18
Full
Oct 26
Last Quarter
Nov 3
New

Hourly Weather History & Observations

Time (PDT) Temp. Dew Point Humidity Pressure Visibility Wind Dir Wind Speed Gust Speed Precip Events Conditions
12:56 AM 52.9 °F 20.1 °F 28% 30.27 in 10.0 mi South 8.1 mph - N/A   Clear
1:56 AM 52.9 °F 22.1 °F 30% 30.27 in 10.0 mi SSE 5.8 mph - N/A   Clear
2:56 AM 52.0 °F 20.1 °F 29% 30.26 in 10.0 mi Calm Calm - N/A   Clear
3:56 AM 52.0 °F 21.0 °F 30% 30.25 in 10.0 mi ESE 3.5 mph - N/A   Clear
4:56 AM 48.9 °F 23.0 °F 36% 30.25 in 10.0 mi Calm Calm - N/A   Clear
5:56 AM 50.9 °F 20.1 °F 30% 30.26 in 10.0 mi SW 4.6 mph - N/A   Clear
6:56 AM 48.9 °F 19.0 °F 31% 30.27 in 10.0 mi South 4.6 mph - N/A   Clear
7:56 AM 54.9 °F 23.0 °F 29% 30.29 in 10.0 mi SSE 3.5 mph - N/A   Clear
8:56 AM 63.0 °F 20.1 °F 19% 30.29 in 10.0 mi North 4.6 mph - N/A   Clear
9:56 AM 66.9 °F 19.0 °F 16% 30.29 in 10.0 mi North 9.2 mph - N/A   Clear
10:56 AM 68.9 °F 19.0 °F 15% 30.27 in 10.0 mi NNE 5.8 mph - N/A   Clear
11:56 AM 72.0 °F 18.1 °F 13% 30.25 in 10.0 mi NNW 5.8 mph - N/A   Clear
12:56 PM 73.9 °F 17.1 °F 12% 30.20 in 10.0 mi Variable 6.9 mph - N/A   Clear
1:56 PM 77.0 °F 17.1 °F 10% 30.16 in 10.0 mi ENE 4.6 mph - N/A   Clear
2:56 PM 77.9 °F 14.0 °F 9% 30.14 in 10.0 mi Variable 4.6 mph - N/A   Clear
3:56 PM 79.9 °F 11.1 °F 7% 30.11 in 10.0 mi Variable 4.6 mph - N/A   Clear
4:56 PM 79.9 °F 10.0 °F 7% 30.10 in 10.0 mi Calm Calm - N/A   Clear
5:56 PM 77.9 °F 12.0 °F 8% 30.09 in 10.0 mi WNW 3.5 mph - N/A   Clear
6:56 PM 70.9 °F 16.2 °F 12% 30.09 in 10.0 mi Calm Calm - N/A   Clear
7:56 PM 65.8 °F 21.0 °F 18% 30.09 in 10.0 mi SSE 6.9 mph - N/A   Clear
8:56 PM 63.0 °F 21.0 °F 20% 30.09 in 10.0 mi SSE 9.2 mph - N/A   Clear
9:56 PM 61.0 °F 18.1 °F 19% 30.09 in 10.0 mi SSE 8.1 mph - N/A   Clear
10:56 PM 61.0 °F 17.1 °F 18% 30.08 in 10.0 mi SSE 10.4 mph - N/A   Clear
11:56 PM 59.9 °F 13.1 °F 16% 30.06 in 10.0 mi South 8.1 mph - N/A   Clear